This is the latest recevied weather packets stored in our database for station/object N1HQ. If no packets are shown the sender has not sent any weather packets the latest 10 day(s).
| Time | Temp. | Humidity | Pressure | Rain* | Wind** | Luminosity | Snow |
|---|---|---|---|---|---|---|---|
| 1787763988 | 32.78° C | 75% | 1014.4 hPa | 0 mm | - | - | - |
| 1787763690 | 32.78° C | 76% | 1014.5 hPa | 0 mm | - | - | - |
| 1787763391 | 32.78° C | 77% | 1014.7 hPa | 0 mm | - | - | - |
| 1787763143 | 32.22° C | 78% | 1014.6 hPa | 0 mm | - | - | - |
| 1787762863 | 32.78° C | 77% | 1014.7 hPa | 0 mm | - | - | - |
| 1787762597 | 32.78° C | 77% | 1014.6 hPa | 0 mm | - | - | - |
| 1787762307 | 32.22° C | 75% | 1014.6 hPa | 0 mm | - | - | - |
| 1787762048 | 32.22° C | 76% | 1014.6 hPa | 0 mm | - | - | - |
| 1787761771 | 32.22° C | 78% | 1014.6 hPa | 0 mm | - | - | - |
| 1787761491 | 31.67° C | 78% | 1014.6 hPa | 0 mm | - | - | - |
| 1787761223 | 31.67° C | 76% | 1014.7 hPa | 0 mm | - | - | - |
| 1787760948 | 31.67° C | 76% | 1014.8 hPa | 0 mm | - | - | - |
| 1787760663 | 32.22° C | 76% | 1014.8 hPa | 0 mm | - | - | - |
| 1787760403 | 32.22° C | 79% | 1014.7 hPa | 0 mm | - | - | - |
| 1787760108 | 31.67° C | 79% | 1014.8 hPa | 0 mm | - | - | - |
| 1787759863 | 31.11° C | 81% | 1014.8 hPa | 0 mm | - | - | - |
| 1787759591 | 31.11° C | 83% | 1014.8 hPa | 0 mm | - | - | - |
| 1787759338 | 31.11° C | 80% | 1014.8 hPa | 0 mm | - | - | - |
| 1787759083 | 30° C | 85% | 1015.1 hPa | 0 mm | - | - | - |
| 1787758843 | 30° C | 85% | 1015.1 hPa | 0 mm | - | - | - |
| 1787758603 | 30° C | 85% | 1015.1 hPa | 0 mm | - | - | - |
| 1787758351 | 30° C | 85% | 1015.1 hPa | 0 mm | - | - | - |
| 1787758098 | 30° C | 85% | 1015.1 hPa | 0 mm | - | - | - |
| 1787757843 | 30° C | 85% | 1015.1 hPa | 0 mm | - | - | - |
| 1787757573 | 30° C | 85% | 1015.1 hPa | 0 mm | - | - | - |
* Rain latest hour (hover to see other rain measurements)
** Current wind speed in m/s (hover to see current wind gust speed)